Regional Weather Roundup
Issued by NWS

Home | Current Version | Previous Version | Graphics & Text | Print | Product List | Glossary On
Versions: 1 2 3 4 5 6 7 8 9 10 11 12 13 14 15 16 17 18 19 20 21 22 23 24 25 26 27 28 29 30 31 32 33 34 35 36 37 38 39 40 41 42 43 44 45 46 47 48 49 50
000
ASUS43 KMKX 281510
RWRWI

WISCONSIN REGIONAL WEATHER ROUNDUP
NATIONAL WEATHER SERVICE MILWAUKEE/SULLIVAN WI
1000 AM CDT SAT MAR 28 2015

NOTE: "FAIR" INDICATES FEW OR NO CLOUDS BELOW 12,000 FEET WITH NO
SIGNIFICANT WEATHER AND/OR OBSTRUCTIONS TO VISIBILITY.

WIZ001-002-006>008-014>016-023>028-281600-
NORTHWEST WISCONSIN

CITY           SKY/WX    TMP DP  RH WIND       PRES   REMARKS
SUPERIOR ARPT  SUNNY     29  13  53 CALM      30.25F
ASHLAND        SUNNY     31  15  52 S3        30.25S
HAYWARD        SUNNY     30   9  41 SW5       30.23S WCI  25
SIREN          SUNNY     33   9  37 S8        30.25R WCI  26
CUMBERLAND     SUNNY     30  12  47 S7        30.24F WCI  23
RICE LAKE      SUNNY     30  15  53 SW5       30.27F WCI  26
CHETEK         SUNNY     31  12  45 SW3       30.26S
LADYSMITH      SUNNY     30  19  62 S3        30.27S
EAU CLAIRE     SUNNY     31  11  43 S5        30.28R WCI  26
MENOMONIE      SUNNY     32  12  43 S8        30.28S WCI  25
NEW RICHMOND   SUNNY     32  11  42 S9        30.25F WCI  24
OSCEOLA        SUNNY     32  12  44 S8        30.29S WCI  25
$$

WIZ003>005-009-010-017-018-281600-
NORTH CENTRAL WISCONSIN

CITY           SKY/WX    TMP DP  RH WIND       PRES   REMARKS
MANITOWISH WTR SUNNY     26  12  56 S3        30.22S
ARBOR VITAE    SUNNY     24  11  57 CALM      30.21F
WOODRUFF       SUNNY     24  11  57 CALM      30.21F
RHINELANDER    SUNNY     26  11  52 SW6       30.23S WCI  19
EAGLE RIVER    SUNNY     24   8  51 CALM      30.22S
LAND O LAKES   SUNNY     25   8  47 CALM      30.22S
PHILLIPS       SUNNY     28  12  51 SW5       30.23S WCI  22
TOMAHAWK       SUNNY     26  12  53 CALM      30.24F
MEDFORD        SUNNY     27  13  56 SW7       30.24S WCI  20
MERRILL        SUNNY     25  13  59 CALM      30.26R
$$

WIZ029-030-035-036-043>047-281600-
CENTRAL WISCONSIN

CITY           SKY/WX    TMP DP  RH WIND       PRES   REMARKS
WAUSAU         SUNNY     25  14  63 SE3       30.26S
MOSINEE        SUNNY     25  16  68 VRB3      30.28S
MARSHFIELD     SUNNY     30  14  51 SW6       30.27S WCI  24
STEVENS POINT  SUNNY     27  11  51 CALM      30.30R
WAUPACA        SUNNY     30  15  54 SE5       30.33R WCI  25
WAUTOMA        SUNNY     29  14  53 VRB3      30.32S
WISC RAPIDS    SUNNY     28  10  46 SW3       30.30F
CAMP DOUGLAS   SUNNY     30  16  55 S6        30.29S WCI  24
$$

WIZ011>013-019>022-031-037>040-048>050-281600-
NORTHEAST WISCONSIN

CITY           SKY/WX    TMP DP  RH WIND       PRES   REMARKS
ANTIGO         SUNNY     23  13  64 S5        30.25F WCI  17
SHAWANO        SUNNY     29  16  59 SW5       30.32S WCI  24
OCONTO         SUNNY     26  12  56 SE3       30.33S
STURGEON BAY   SUNNY     25   7  46 S3        30.35R
GREEN BAY      SUNNY     26  14  60 VRB6      30.33S WCI  19
MANITOWOC      SUNNY     33  17  51 CALM      30.34R
APPLETON       SUNNY     27  12  54 VRB5      30.32R WCI  21
CLINTONVILLE   SUNNY     28  16  59 SW7       30.32R WCI  21
OSHKOSH        SUNNY     27  15  61 S6        30.32S WCI  20
$$

WIZ032>034-041-042-053>061-281600-
SOUTHWEST WISCONSIN

CITY           SKY/WX    TMP DP  RH WIND       PRES   REMARKS
LA CROSSE      SUNNY     30  19  63 SE6       30.31R WCI  24
SPARTA         SUNNY     31  15  50 CALM      30.30S
VIROQUA        SUNNY     29  16  58 SW6       30.28R WCI  23
BOSCOBEL       SUNNY     28  15  58 CALM      30.33S
PRAIRIE DU CHI SUNNY     27  14  58 CALM      30.33R
PLATTEVILLE    SUNNY     29  21  71 S7        30.31S WCI  22
$$

WIZ056-057-062-063-064-067-068-281600-
SOUTH CENTRAL WISCONSIN

CITY           SKY/WX    TMP DP  RH WIND       PRES   REMARKS
REEDSBURG      SUNNY     29  15  56 S7        30.31S WCI  22
BARABOO/DELLS  SUNNY     30  14  51 SW5       30.31R WCI  25
LONE ROCK      SUNNY     28  16  60 CALM      30.34R
MINERAL POINT  SUNNY     27  18  69 S3        30.30S
MADISON        MOSUNNY   28  13  53 S7        30.32R WCI  21
MIDDLETON      SUNNY     30  13  49 S7        30.33R WCI  23
WATERTOWN      SUNNY     28  14  54 CALM      30.32S
MONROE         SUNNY     28  18  64 S8        30.31R WCI  20
JANESVILLE     SUNNY     30  16  55 SE7       30.33R WCI  23
$$

WIZ051-052-058>065-066-070>072-281600-
SOUTHEAST WISCONSIN

CITY           SKY/WX    TMP DP  RH WIND       PRES   REMARKS
MILWAUKEE      MOSUNNY   30  16  56 N5        30.34R WCI  25
WAUKESHA       SUNNY     25  16  68 CALM      30.33R
MILWAUKEE/TIMM SUNNY     27  14  59 CALM      30.34R
RACINE         SUNNY     29  16  58 NE6       30.36R WCI  23
BURLINGTON     SUNNY     26  15  64 CALM      30.34R
KENOSHA        SUNNY     29  16  58 NE5       30.34R WCI  24
FOND DU LAC    FLURRIES  28  13  53 S7        30.32S WCI  21
SHEBOYGAN      MOSUNNY   27  15  61 CALM      30.33R
WEST BEND      SUNNY     28  14  54 W3        30.33R
JUNEAU         SUNNY     27  13  55 S3        30.33R
$$

LSZ147-162-281600-
LAKE SUPERIOR

STATION/POSITION TIME  TEMP    WIND        PRES    WAVE
                       AIR SEA DIR/SP/G            HT/PER
                 (UTC) (F)     (DEG/KT/KT) (MB)    (FT/S)
DEVILS ISLAND    1500   27     230/  6/  7 1025.6R
PORT WING        1440   29     230/  4/  5 1024.7S
SAXON HARBOR     1400   24        CALM     1024.7
$$

LMZ867-665-643>646-281600-
LAKE MICHIGAN

STATION/POSITION TIME  TEMP    WIND        PRES    WAVE
                       AIR SEA DIR/SP/G            HT/PER
                 (UTC) (F)     (DEG/KT/KT) (MB)    (FT/S)
NORTHPORT PIER   1423   24     360/  2/  4 1027.1S
SISTER BAY       1417             CALM       N/A
KEWAUNEE LAKESHO 1400   25      CALM  /  4 1026.1R
SHEBOYGAN LAKESH 1500   26      50/  2/  3 1028.6R
PORT WASHINGTON  1400   29      70/  3/  4 1027.8R
MILWAUKEE LAKESH 1400   27     360/  2/  4   N/A
KENOSHA   LAKESH 1500   26      40/  8/  9 1027.8R
$$

TC  - TEMPERATURE IN CELSIUS
VSB - VISIBILITY IN STATUTE MILES
WCI - WIND CHILL INDEX
HX  - HEAT INDEX



USA.gov is the U.S. government's official web portal to all federal, state and local government web resources and services.